Forside
METAR-TAF:

METAR-TAF

Lufthavne :

Minocqua / Woodruff, Wisconsin, USA

Breddekreds: 45-56N, længdekreds: 089-44W, højde: 496 m

Aktuelle vejr

Denne rapport blev lavet for 31 minutter siden, kl. 06:35 UTC
Vind stille
Temperatur -1°C
Fugtighed 69%
Tryk 1009 hPa
Sigt: 16.1 km
skyfri

METAR: KARV 290635Z AUTO 00000KT 10SM CLR M01/M06 A2979 RMK AO2 T10151065

Tid: 01:06 (07:06 UTC)


TAF: fraværende

Vejrobservationer og prognoser fra mere end 4000 lufthavne (METAR og TAF).

De gule og røde prikker repræsenterer de meteorologiske stationer.

Flyt musen over at se navnet på stationen.

Så klik over at se vejr observationer og prognoser.

At skifte det kort: Klik på de grønne knapper med et sort kors for at zoome ind; på den grønne knap med en bindestreg for at zoome ud; eller på de grønne pile for tilstødende kort.


METAR-TAF: